Temperature
18 17 17 17 16 16 16 16 16 16 16 16 15 15 15 15 15 15 15 15 15 15 15 15 15 15 15 14 14 14 14 14 14 14 14 14 14 14 14 14 14 14 14
18 17 17 17 17 17 16 16 16 16 16 16 16 15 15 15 15 15 15 15 15 15 15 15 15 15 15 15 14 14 14 14 14 14 15 15 15 14 14 14 14 14 14
19 18 17 17 17 17 16 16 16 16 16 16 16 15 15 15 15 15 15 15 15 15 15 15 15 15 15 15 15 14 14 14 14 14 15 16 16 15 14 14 14 14 14
18 18 17 17 17 17 17 16 16 16 16 16 16 16 15 15 15 15 15 15 15 15 15 15 15 15 15 15 15 14 14 14 14 14 14 14 15 15 15 14 14 14 14
19 18 17 17 17 17 17 17 16 16 16 16 16 16 15 15 15 15 15 15 15 15 15 15 15 15 15 15 15 15 15 14 14 14 14 14 14 15 15 15 14 14 14
19 18 18 17 17 17 17 17 17 16 16 16 16 16 16 15 15 15 15 15 15 15 15 15 15 15 15 15 15 15 15 14 14 14 14 14 14 14 14 15 14 14 13
19 18 18 17 17 17 17 17 17 17 16 16 16 16 16 15 15 15 15 15 15 15 15 15 15 15 15 15 15 15 14 14 14 14 14 14 14 14 14 14 14 14 13
19 18 18 17 17 17 17 17 17 17 16 16 16 16 16 15 15 15 15 15 15 15 15 15 15 15 15 15 15 14 14 14 14 14 14 14 14 14 14 14 14 14 14
19 18 18 18 17 17 17 17 17 17 17 16 16 16 16 16 16 15 15 15 15 15 15 15 15 15 15 15 14 14 14 14 14 14 14 14 14 14 14 14 14 14 15
19 19 18 18 18 17 17 17 17 17 17 16 16 16 16 16 16 15 15 15 15 15 15 15 15 15 15 15 14 14 14 14 14 14 14 14 14 14 14 14 13 13 14
19 19 18 18 18 17 17 17 17 17 17 16 16 16 16 16 16 16 16 15 15 15 15 15 15 15 15 14 15 14 14 14 14 14 14 14 14 13 13 13 13 13 13
19 19 18 18 18 18 17 17 17 17 17 17 16 16 16 16 16 16 15 15 15 15 15 15 15 15 14 14 14 14 14 14 14 14 13 13 13 13 13 13 13 13 13
19 19 18 18 18 18 17 17 17 17 17 17 16 16 16 16 16 16 15 15 15 15 15 15 15 15 14 14 14 14 14 14 13 13 13 13 13 13 13 13 13 13 13
19 19 18 18 18 18 18 18 17 17 17 17 16 16 16 16 16 16 15 15 15 15 15 15 15 15 14 14 14 14 14 14 13 13 13 13 13 13 12 12 12 12 12
19 19 19 19 18 18 18 18 18 17 17 17 17 16 16 16 16 16 15 15 15 15 15 15 15 14 14 14 14 14 14 13 13 13 13 13 13 13 13 12 12 12 12
19 19 19 19 18 18 18 18 18 17 17 17 17 16 16 16 16 15 15 15 15 15 15 15 14 14 14 14 14 14 13 13 13 13 13 13 13 13 12 12 12 12 12
19 19 19 19 19 19 18 18 18 17 17 17 17 16 16 16 15 15 15 15 15 15 15 14 14 14 14 14 14 14 13 13 13 13 12 12 12 12 12 12 12 12 12
20 19 19 19 19 19 18 18 18 17 17 17 17 16 16 16 15 15 15 15 15 15 14 14 14 14 14 14 14 14 13 13 13 13 12 12 12 12 11 11 11 11 11
20 20 20 19 19 19 18 18 18 17 17 17 17 16 16 16 15 15 15 15 15 14 14 14 14 14 14 14 14 14 13 13 12 12 12 12 12 12 12 11 11 11 11
20 20 20 19 19 19 18 18 18 17 17 17 17 16 16 16 16 15 15 15 15 14 14 14 14 14 14 14 13 13 13 13 12 12 12 12 12 12 11 11 11 10 10
20 20 20 19 19 19 18 18 18 17 17 17 17 16 16 16 15 15 15 15 14 14 14 14 14 14 13 13 13 13 13 12 12 12 12 11 12 11 11 11 10 10 10
20 20 19 19 19 19 19 18 18 18 17 17 17 16 16 16 15 15 15 15 14 14 14 14 14 13 13 13 13 13 13 12 12 12 11 11 11 11 11 10 10 10 10
20 20 19 19 19 19 18 18 18 18 18 17 17 17 16 16 15 15 15 15 14 14 14 14 13 13 13 13 13 13 12 12 12 12 11 11 11 11 10 10 10 10 9
19 19 19 19 18 18 18 18 18 18 17 17 17 16 16 16 15 15 15 14 14 14 14 13 13 13 13 13 12 12 12 12 11 11 11 11 10 10 10 10 9 9 9
19 19 19 19 19 18 18 18 18 18 17 17 17 16 16 16 15 15 15 14 14 14 14 13 13 13 13 12 12 12 12 11 11 11 10 10 10 10 9 9 9 8 8
19 18 18 18 18 18 18 18 18 18 17 17 16 16 16 15 15 15 14 14 14 14 13 13 13 13 13 12 12 12 11 11 11 10 10 10 9 9 9 8 8 8 8
Wind_Speed
10 9 9 8 7 7 7 7 6 5 4 3 2 2 2 2 3 3 4 3 3 3 3 2 2 2 2 2 3 3 4 3 2 1 2 3 4 5 4 5 5 6 7
10 10 10 9 8 8 8 7 7 6 5 3 2 2 2 2 3 3 3 3 3 3 3 2 2 2 2 3 3 2 2 2 0 1 1 1 3 3 4 4 4 5 6
12 12 11 10 9 8 8 7 7 7 6 5 3 2 2 2 3 3 3 3 4 4 3 3 2 2 2 2 2 2 2 1 1 1 2 2 2 2 3 4 4 4 4
12 12 12 11 10 10 8 8 7 7 6 5 4 3 2 2 2 2 2 3 4 4 4 3 3 2 2 2 1 1 0 1 0 0 2 3 2 1 1 2 3 4 5
14 13 13 12 11 10 9 8 8 7 6 5 4 3 2 2 3 3 3 3 4 4 4 3 3 2 2 2 1 1 0 0 1 1 1 1 1 1 1 1 2 2 3
14 14 13 12 11 10 9 8 8 7 6 6 5 4 3 3 3 3 3 3 3 3 4 3 3 3 2 2 2 1 1 1 1 1 1 1 1 1 1 1 1 2 2
15 15 14 13 12 11 10 9 9 8 7 7 6 5 4 4 3 3 3 3 3 3 3 3 2 3 3 3 2 2 1 1 1 1 2 2 2 1 1 0 0 1 1
15 15 15 14 13 12 12 11 10 9 8 7 6 5 5 3 3 3 2 3 2 2 3 3 3 3 3 3 2 2 2 2 1 2 2 1 1 1 1 1 1 0 1
15 15 15 14 13 13 12 12 11 10 9 8 7 6 6 5 4 3 3 3 2 2 3 3 3 3 3 2 2 2 2 2 2 2 2 1 2 1 1 1 1 2 1
14 15 14 14 14 13 12 12 12 11 10 9 7 6 6 5 4 3 4 3 3 3 3 3 3 3 3 3 2 2 2 2 3 2 2 2 2 1 1 1 1 2 2
13 13 13 14 13 13 12 12 12 11 10 10 8 8 7 6 5 4 4 4 3 3 3 3 3 3 3 3 3 2 2 2 2 2 2 2 2 1 1 1 1 1 1
11 12 12 12 13 13 13 13 13 12 11 10 9 8 7 7 6 5 5 4 4 3 3 3 3 3 2 2 2 2 2 2 2 2 2 2 2 2 1 1 1 1 1
10 10 11 12 13 13 13 13 13 12 11 10 9 9 8 8 7 6 5 5 4 4 4 3 3 3 3 2 2 2 2 2 1 1 1 2 1 1 1 0 1 0 0
9 11 11 11 12 13 13 13 13 12 12 11 11 10 9 8 8 7 6 5 5 5 4 4 3 3 3 3 2 2 2 1 1 1 1 1 1 1 1 0 1 1 1
9 11 11 11 12 12 12 12 12 12 12 12 12 11 10 9 8 7 7 6 5 5 4 3 3 3 3 2 2 2 2 1 1 1 1 1 3 5 3 2 2 1 1
10 11 11 12 13 13 13 12 13 13 13 12 12 10 10 9 9 8 8 7 6 5 5 4 4 3 3 3 2 2 2 2 2 1 1 1 1 1 1 1 3 4 3
9 11 12 12 12 12 13 13 13 12 13 12 11 11 11 10 10 9 8 8 7 6 6 5 4 4 4 5 4 4 3 2 1 2 1 1 1 1 1 2 3 1 2
8 10 10 11 11 12 12 12 12 12 12 12 12 11 11 11 10 9 9 9 8 7 6 5 5 4 4 5 5 5 4 3 2 2 2 2 2 1 1 1 1 1 1
7 8 10 11 11 12 12 12 12 12 12 12 12 12 12 11 11 10 10 8 7 7 6 5 5 5 4 6 6 6 4 3 3 2 3 3 3 1 2 3 2 2 2
5 7 8 10 11 12 12 12 12 12 12 12 12 11 11 11 11 10 10 8 7 7 6 5 5 5 4 5 6 6 4 4 3 2 2 2 3 1 2 4 3 4 3
4 6 8 9 10 12 12 12 12 12 11 11 11 11 11 11 10 9 9 8 7 7 6 6 5 5 4 5 5 5 4 4 3 3 2 1 4 3 3 5 4 3 4
4 6 7 8 9 11 12 12 11 10 10 10 11 10 10 10 9 9 8 8 8 7 7 6 5 4 4 3 4 5 5 4 4 3 2 1 3 3 3 3 2 1 3
4 5 7 7 8 11 11 12 11 10 11 11 11 10 10 9 9 9 9 8 7 7 6 6 5 5 4 4 5 5 5 4 3 2 1 1 2 2 3 4 4 4 3
4 5 7 7 8 9 10 10 10 11 11 11 11 10 10 9 9 7 7 7 7 7 7 6 6 5 4 4 4 4 4 5 4 2 3 3 2 3 2 2 3 3 3
4 5 6 7 8 9 9 9 10 11 12 11 10 10 9 9 8 7 5 6 6 6 6 6 5 5 5 3 3 3 4 3 3 3 2 3 2 2 2 2 2 2 3
5 6 6 7 8 9 9 9 10 11 12 11 10 9 8 8 7 7 5 3 2 3 3 2 3 3 2 5 5 4 3 3 4 3 3 3 2 3 3 3 3 2 3
Wind_Direction
188 178 178 181 182 179 177 173 170 160 155 148 151 130 108 102 82 63 55 54 53 53 71 99 102 96 107 118 126 119 118 113 107 103 98 98 72 57 57 46 43 52 47
188 181 185 186 187 182 184 180 177 173 170 165 154 128 112 99 77 73 65 49 52 53 63 86 104 107 117 134 141 145 141 128 177 321 315 145 125 78 57 53 44 44 50
194 186 188 188 187 185 185 185 181 179 177 166 149 134 130 134 106 91 79 54 52 58 60 66 78 96 122 129 144 164 176 174 154 358 333 341 45 87 82 54 54 50 45
197 190 188 189 189 189 187 188 185 185 179 175 177 168 164 136 113 109 97 86 70 68 64 71 73 87 87 115 148 157 214 245 231 98 356 357 11 323 103 101 66 54 46
198 193 191 191 191 187 187 189 184 186 181 185 184 197 176 133 122 121 111 100 84 75 75 72 73 81 86 98 98 104 281 269 321 341 4 29 10 306 351 87 78 73 55
196 195 192 190 189 185 186 185 183 181 180 187 188 191 163 150 141 138 128 120 104 92 85 77 75 76 79 85 82 95 105 13 7 342 347 336 348 18 31 102 105 74 60
194 193 191 191 189 187 187 185 182 183 184 187 186 182 172 170 159 150 142 134 117 103 92 88 81 78 77 81 81 91 72 67 25 354 4 5 4 7 351 325 90 96 85
193 192 192 192 191 189 188 186 187 187 184 187 186 181 174 179 159 153 148 142 122 103 103 98 91 85 83 87 83 74 69 61 68 53 46 36 36 34 19 358 318 245 136
191 192 192 193 192 190 190 190 190 189 188 188 187 183 179 181 171 164 151 135 124 113 113 117 111 103 96 85 89 78 81 70 57 61 71 60 66 52 29 349 306 313 307
190 191 192 192 193 191 191 193 193 192 188 188 187 183 181 178 172 167 157 152 142 133 135 131 127 120 111 100 91 87 71 81 72 47 51 54 66 68 49 344 321 323 317
189 188 189 192 192 189 190 193 194 192 188 189 188 183 179 177 175 172 163 159 154 156 154 151 147 136 128 118 108 95 92 81 83 81 69 65 53 61 56 35 15 358 322
186 185 186 186 189 191 193 194 194 192 189 188 186 184 179 178 182 177 170 168 164 165 163 155 155 146 140 132 128 121 112 88 70 65 66 63 77 65 47 33 39 37 349
178 179 181 185 189 192 194 195 194 191 187 185 184 184 185 185 187 182 176 174 170 166 162 159 157 153 152 144 142 139 131 108 83 60 47 47 61 65 67 32 11 0 18
178 179 182 186 189 191 192 194 194 190 185 184 185 189 192 190 188 184 180 177 174 173 170 165 167 166 164 162 159 151 149 130 104 71 40 22 11 350 360 344 339 326 305
187 187 187 187 188 190 192 192 192 190 186 186 189 192 191 188 188 184 182 178 176 179 175 171 173 175 178 179 178 170 171 172 159 135 79 47 38 23 7 348 336 317 294
197 194 193 191 192 192 192 190 191 189 187 189 191 190 190 187 188 187 184 180 180 184 183 185 184 182 180 137 166 223 188 194 200 203 200 137 136 125 127 7 357 348 317
202 200 199 197 196 194 191 190 191 187 189 192 190 187 188 189 191 188 184 185 187 189 191 196 195 198 180 158 174 210 222 220 233 235 235 218 196 225 215 173 187 217 311
202 202 200 196 194 191 188 186 185 186 190 191 189 187 187 189 191 190 189 194 196 192 197 201 202 204 192 172 184 202 218 223 229 238 243 240 246 240 269 260 266 290 297
207 201 199 194 189 185 183 182 183 186 190 191 190 188 188 188 189 191 193 195 194 194 197 200 201 204 200 181 194 212 217 219 227 236 247 250 248 132 244 255 264 274 271
203 195 189 187 185 182 179 180 183 186 191 192 192 189 187 187 190 192 190 187 189 194 196 198 204 207 212 170 190 216 217 224 227 230 234 238 252 183 233 252 263 271 280
186 184 179 181 183 177 177 182 185 191 190 185 184 183 183 185 187 188 187 186 188 190 197 199 203 206 208 178 184 211 223 227 235 239 241 223 174 206 236 265 273 291 299
170 176 176 178 177 174 177 183 188 188 178 173 175 178 180 180 182 182 185 188 187 190 197 204 206 208 203 199 185 201 229 259 240 248 251 180 139 190 231 248 258 282 279
169 174 174 174 174 176 181 185 183 176 170 170 173 176 177 178 180 182 183 185 189 196 202 205 209 209 203 187 182 196 204 221 232 242 68 90 159 194 215 212 227 240 252
170 172 172 175 177 179 184 185 176 172 171 172 173 173 175 177 179 181 186 189 192 198 202 206 209 209 204 203 188 186 180 177 194 200 157 166 192 212 229 223 221 235 254
174 178 180 182 182 178 180 180 176 173 174 174 172 173 173 171 174 175 181 191 196 201 203 204 206 207 211 189 169 196 196 195 186 184 199 212 219 236 237 236 243 247 247
180 181 183 185 183 179 178 177 176 176 175 173 173 172 171 171 172 170 162 102 149 133 163 187 210 196 154 136 156 170 165 153 163 193 217 226 240 254 259 256 253 253 263
Height
1550 1552 1554 1556 1558 1560 1561 1563 1564 1565 1565 1566 1566 1566 1566 1566 1566 1565 1565 1565 1565 1564 1564 1564 1564 1564 1564 1564 1564 1564 1564 1564 1564 1565 1564 1564 1563 1563 1561 1561 1561 1560 1559
1548 1551 1553 1555 1557 1559 1561 1562 1564 1565 1565 1566 1566 1567 1567 1567 1566 1566 1566 1565 1565 1565 1565 1564 1564 1564 1564 1564 1565 1565 1565 1565 1565 1566 1566 1565 1566 1564 1563 1562 1562 1562 1561
1546 1549 1551 1554 1556 1558 1560 1561 1563 1564 1565 1566 1566 1567 1567 1567 1567 1567 1566 1566 1566 1565 1565 1565 1565 1565 1565 1565 1565 1565 1565 1566 1566 1566 1566 1566 1566 1566 1565 1564 1563 1563 1562
1544 1547 1550 1552 1554 1557 1559 1561 1562 1564 1565 1566 1567 1567 1568 1568 1568 1567 1567 1567 1566 1566 1566 1566 1565 1565 1566 1565 1566 1566 1566 1566 1566 1566 1565 1566 1566 1566 1566 1566 1565 1564 1563
1541 1544 1547 1550 1553 1555 1557 1559 1561 1563 1564 1565 1566 1567 1568 1568 1568 1568 1568 1568 1567 1567 1566 1566 1566 1566 1566 1566 1566 1566 1566 1566 1567 1566 1566 1566 1565 1566 1567 1567 1567 1565 1564
1538 1542 1545 1548 1551 1554 1556 1558 1560 1562 1563 1565 1566 1567 1567 1568 1568 1568 1568 1568 1568 1568 1567 1567 1567 1567 1567 1567 1567 1567 1567 1567 1567 1567 1566 1566 1566 1566 1566 1567 1566 1566 1565
1535 1539 1542 1545 1549 1551 1554 1556 1559 1561 1563 1564 1565 1566 1567 1568 1568 1568 1568 1569 1569 1569 1568 1568 1568 1568 1567 1567 1567 1567 1567 1567 1567 1567 1567 1566 1566 1566 1566 1567 1566 1566 1566
1532 1536 1539 1543 1546 1549 1552 1555 1557 1560 1562 1563 1565 1566 1567 1568 1568 1568 1569 1569 1569 1569 1569 1568 1568 1568 1568 1568 1568 1568 1568 1568 1568 1567 1567 1566 1566 1566 1566 1566 1566 1566 1566
1529 1533 1536 1540 1544 1547 1550 1553 1556 1558 1560 1562 1564 1565 1566 1567 1568 1568 1569 1569 1569 1569 1569 1569 1569 1569 1569 1568 1568 1568 1568 1568 1568 1568 1567 1567 1566 1566 1566 1566 1566 1567 1566
1527 1530 1534 1537 1541 1545 1548 1551 1554 1557 1559 1561 1563 1564 1565 1566 1567 1568 1568 1569 1569 1569 1570 1570 1569 1569 1569 1569 1569 1569 1568 1568 1568 1568 1567 1567 1567 1566 1565 1565 1565 1565 1566
1524 1527 1531 1535 1539 1542 1546 1549 1552 1555 1557 1559 1561 1563 1564 1565 1567 1567 1568 1568 1569 1569 1570 1570 1570 1570 1570 1570 1569 1569 1569 1569 1569 1568 1568 1567 1567 1566 1566 1565 1565 1565 1565
1522 1525 1529 1532 1536 1539 1543 1546 1550 1552 1555 1557 1559 1561 1563 1564 1566 1567 1567 1568 1569 1569 1570 1570 1570 1570 1570 1570 1570 1569 1569 1569 1569 1569 1568 1567 1567 1566 1565 1565 1565 1564 1564
1521 1524 1527 1530 1533 1536 1540 1544 1547 1550 1552 1555 1557 1559 1561 1563 1565 1566 1567 1568 1568 1569 1569 1570 1570 1570 1570 1570 1570 1570 1569 1569 1569 1569 1568 1567 1567 1566 1565 1565 1564 1564 1563
1519 1522 1524 1527 1530 1534 1537 1540 1544 1547 1549 1552 1554 1557 1559 1561 1563 1565 1566 1567 1568 1568 1569 1569 1569 1570 1570 1570 1570 1569 1569 1569 1569 1568 1567 1567 1566 1566 1565 1564 1564 1563 1563
1517 1519 1522 1525 1528 1531 1534 1537 1541 1544 1546 1549 1552 1554 1557 1559 1561 1563 1564 1565 1566 1567 1568 1568 1569 1569 1569 1569 1569 1569 1569 1568 1568 1567 1567 1566 1565 1565 1564 1563 1563 1562 1562
1514 1517 1519 1522 1525 1528 1531 1534 1537 1540 1543 1546 1549 1552 1554 1557 1558 1560 1562 1564 1565 1566 1567 1567 1568 1568 1568 1568 1568 1568 1568 1568 1567 1567 1566 1565 1564 1563 1563 1562 1561 1561 1560
1511 1514 1516 1518 1521 1524 1527 1531 1534 1537 1540 1543 1546 1549 1551 1554 1556 1558 1560 1561 1563 1564 1565 1566 1566 1567 1567 1567 1567 1567 1566 1566 1566 1565 1565 1564 1563 1562 1562 1561 1560 1559 1558
1508 1510 1513 1515 1518 1522 1525 1528 1531 1534 1537 1540 1543 1545 1548 1551 1553 1555 1557 1559 1560 1562 1563 1564 1564 1565 1565 1565 1565 1565 1565 1564 1564 1564 1563 1563 1562 1561 1560 1560 1559 1558 1556
1506 1507 1510 1513 1516 1519 1522 1525 1528 1531 1534 1537 1539 1542 1545 1547 1550 1552 1554 1556 1558 1559 1560 1561 1562 1563 1563 1563 1563 1563 1563 1563 1562 1562 1561 1561 1560 1559 1558 1558 1557 1555 1554
1503 1505 1507 1510 1513 1516 1519 1522 1525 1528 1531 1533 1536 1539 1541 1544 1546 1548 1551 1553 1555 1556 1558 1559 1560 1561 1561 1561 1561 1561 1561 1561 1560 1560 1559 1558 1558 1557 1556 1556 1555 1553 1552
1501 1503 1505 1507 1510 1513 1516 1519 1522 1525 1528 1531 1533 1536 1538 1541 1543 1546 1548 1550 1552 1554 1555 1556 1557 1558 1558 1558 1558 1558 1558 1558 1558 1558 1557 1556 1555 1554 1553 1553 1552 1551 1550
1500 1501 1503 1505 1507 1510 1513 1516 1519 1522 1525 1528 1530 1533 1536 1538 1541 1543 1545 1548 1549 1551 1552 1553 1554 1555 1555 1555 1555 1555 1555 1555 1555 1555 1554 1553 1552 1551 1550 1550 1549 1548 1546
1498 1499 1501 1503 1505 1507 1510 1513 1516 1519 1522 1525 1528 1530 1533 1536 1538 1540 1542 1544 1546 1548 1549 1550 1551 1552 1552 1552 1552 1552 1552 1552 1552 1551 1551 1550 1549 1548 1547 1546 1546 1544 1543
1496 1498 1499 1501 1503 1505 1508 1511 1514 1517 1519 1522 1525 1528 1530 1533 1535 1537 1539 1541 1543 1544 1545 1547 1548 1548 1549 1549 1549 1549 1549 1549 1548 1548 1547 1547 1546 1545 1544 1543 1542 1541 1540
1494 1496 1497 1499 1501 1503 1505 1508 1511 1514 1517 1520 1522 1525 1527 1530 1532 1534 1535 1537 1539 1540 1542 1543 1544 1545 1545 1546 1546 1546 1546 1546 1546 1545 1544 1544 1543 1542 1541 1540 1539 1538 1537
1492 1493 1495 1496 1498 1501 1503 1506 1508 1511 1514 1517 1519 1521 1524 1526 1528 1530 1532 1534 1535 1537 1538 1539 1540 1541 1542 1542 1542 1543 1543 1543 1542 1542 1541 1540 1540 1539 1538 1537 1536 1535 1533